Tracking 19247 objects as of 25-Sep-2018
HD Live streaming from Space Station
objects crossing your sky now

FENGYUN 1C DEB

Track FENGYUN 1C DEB now!
10-day predictions


NORAD ID: 37441
Int'l Code: 1999-025EHK
Perigee: 833.8 km
Apogee: 1,630.8 km
Inclination: 99.2 °
Period: 110.0 minutes
Semi major axis: 7603 km
RCS: 0.0082 m2 (small)
Launch date: May 10, 1999
Source: People's Republic of China (PRC)
Launch site: Taiyaun Space Center, China (TSC)

Note: This is SATELLITE DEBRIS
aabbcc
Your satellite tracking list
Your tracking list is empty




NASA's NSSDC Master Catalog

Two Line Element Set (TLE):
1 37441U 99025EHK 18267.24943601 +.00000260 +00000-0 +43365-3 0  9999
2 37441 099.1573 073.7976 0524148 184.1842 175.4797 13.09483334476258
Source of the keplerian elements: AFSPC